Regional Weather Roundup
Issued by NWS

Home | Current Version | Previous Version | Text Only | Print | Product List | Glossary Off
Versions: 1 2 3 4 5 6 7 8 9 10 11 12 13 14 15 16 17 18 19 20 21 22 23 24 25 26 27 28 29 30 31 32 33 34 35 36 37 38 39 40 41 42 43 44 45 46 47 48 49 50

000
ASUS45 KABQ 310301
RWRNM
NEW MEXICO REGIONAL WEATHER ROUNDUP
NATIONAL WEATHER SERVICE ALBUQUERQUE NM
900 PM MDT SAT JUL 30 2016

NOTE: "FAIR" MEANS FEW OR NO CLOUDS BELOW 12,000 FEET AGL WITH NO
       SIGNIFICANT WEATHER OR OBSTRUCTIONS TO VISION.

      THIS PRODUCT IS RELEASED AS TWO VERSIONS.  ONE VERSION NEAR
      THE TOP OF THE HOUR CONTAINING PRELIMINARY DATA FROM ALBUQUERQUE
      AND OTHER STATIONS.  A FINAL VERSION WITH ADDITIONAL DATA IS
      ISSUED ABOUT 10 MINUTES AFTER THE HOUR.

NMZ501-503-504-510>518-310400-
NORTHWEST PLATEAU/NORTHCENTRAL MOUNTAINS

CITY           SKY/WX    TMP DP  RH WIND       PRES   REMARKS
FARMINGTON     FAIR      81  45  28 SE13      30.06R
LOS ALAMOS     CLOUDY    66  47  50 SW16      30.23F
SANTA FE       LGT RAIN  74  45  35 NE13      30.20R
TAOS           FAIR      61  39  44 CALM      30.26R
ANGEL FIRE     FAIR      53  46  79 CALM      30.37S

$$
NMZ402-403-502-505>509-310400-
WESTCENTRAL MOUNTAINS/SOUTHWEST MOUNTAINS

CITY           SKY/WX    TMP DP  RH WIND       PRES   REMARKS
GALLUP         MOCLDY    71  48  43 S21G32    30.15R
GRANTS         FAIR      75  44  33 W20G31    30.16R
SILVER CITY    FAIR      72  56  56 NW8       30.10R

$$
NMZ407-409-411-412-310400-
SOUTHERN DESERTS

CITY           SKY/WX    TMP DP  RH WIND       PRES   REMARKS
LORDSBURG      FAIR      84  50  30 NW5       29.99R
DEMING         FAIR      86  54  33 NW6       29.99R
LAS CRUCES     FAIR      87  47  25 SW6       30.01R
HOLLOMAN AFB   FAIR      86  49  27 E7        29.96R
ALAMOGORDO     FAIR      84  50  30 E7        29.99R
T OR C         FAIR      86  51  29 W7        30.01R

$$
NMZ519>523-310400-
CENTRAL VALLEYS/CENTRAL HIGHLANDS

CITY           SKY/WX    TMP DP  RH WIND       PRES   REMARKS
ALBUQUERQUE    TSTM      66  56  70 N26G41    30.17R
DOUBLE EAGLE   TSTM      64  59  82 E17       30.20R
MORIARTY ARPT  CLOUDY    68  51  54 E13       30.21R
CLINES CORNERS LGT RAIN  56  49  77 S21G29    30.29F
BELEN          FAIR      81  43  26 S9        30.06R
SOCORRO        FAIR      80  48  32 S6        30.03R

$$
NMZ524>526-539-540-310400-
SOUTHCENTRAL MOUNTAINS

CITY           SKY/WX    TMP DP  RH WIND       PRES   REMARKS
RUIDOSO          N/A     72  46  40 SE8       30.25R

$$
NMZ527>531-310400-
NORTHEAST HIGHLANDS/NORTHEAST PLAINS

CITY           SKY/WX    TMP DP  RH WIND       PRES   REMARKS
LAS VEGAS      FAIR      63  50  62 E6        30.26R
RATON          FAIR      60  53  77 NW6       30.18F
CLAYTON        MOCLDY    65  60  84 N14G22    30.12R THUNDER

$$
NMZ532>537-310400-
EASTCENTRAL PLAINS

CITY           SKY/WX    TMP DP  RH WIND       PRES   REMARKS
TUCUMCARI      FAIR      82  52  35 S8        29.99R
CANNON AFB     FAIR      78  55  44 S8        30.04R
CLOVIS AIRPORT FAIR      79  55  44 SE9       30.03S

$$
NMZ028-029-538-310400-
SOUTHEAST PLAINS

CITY           SKY/WX    TMP DP  RH WIND       PRES   REMARKS
ROSWELL        FAIR      86  51  29 S6        29.97R
ARTESIA        FAIR      86  54  32 SE6       29.97R
CARLSBAD       FAIR      88  56  33 S13       29.94R
HOBBS          FAIR      82  54  36 SE7       30.02R


$$



USA.gov is the U.S. government's official web portal to all federal, state and local government web resources and services.